Regional Weather Roundup
Issued by NWS

Home | Current Version | Previous Version | Graphics & Text | Print | Product List | Glossary On
Versions: 1 2 3 4 5 6 7 8 9 10 11 12 13 14 15 16 17 18 19 20 21 22 23 24 25 26 27 28 29 30 31 32 33 34 35 36 37 38 39 40 41 42 43 44 45 46 47 48 49 50
000
ASUS43 KMKX 141700
RWRWI

WISCONSIN REGIONAL WEATHER ROUNDUP
NATIONAL WEATHER SERVICE MILWAUKEE/SULLIVAN WI
1100 AM CST SUN FEB 14 2016

NOTE: "FAIR" INDICATES FEW OR NO CLOUDS BELOW 12,000 FEET WITH NO
SIGNIFICANT WEATHER AND/OR OBSTRUCTIONS TO VISIBILITY.

WIZ001-002-006>008-014>016-023>028-141800-
NORTHWEST WISCONSIN

CITY           SKY/WX    TMP DP  RH WIND       PRES   REMARKS
SUPERIOR ARPT  CLOUDY    11  -4  50 S3        30.08F
ASHLAND        CLOUDY     7  -9  48 CALM      30.11F
HAYWARD        CLOUDY    10  -5  50 S8        30.06F WCI  -2
SIREN          CLOUDY    11   2  67 SE13      30.05F WCI  -4
CUMBERLAND     LGT SNOW  10   1  67 SE10      30.05F WCI  -3
RICE LAKE      LGT SNOW  10   1  66 SE16G22   30.09F WCI  -7
CHETEK         LGT SNOW   9   0  68 SE12      30.08F WCI  -6
LADYSMITH      CLOUDY    10  -6  48 SE8G16    30.12F WCI  -1
EAU CLAIRE     NOT AVBL
MENOMONIE      FLURRIES  14   2  59 E13       30.09F WCI  -1
NEW RICHMOND   CLOUDY    14   3  62 SE12      30.06S WCI   0
OSCEOLA        CLOUDY    13   4  66 SE13G18   30.08F WCI  -1
$$

WIZ003>005-009-010-017-018-141800-
NORTH CENTRAL WISCONSIN

CITY           SKY/WX    TMP DP  RH WIND       PRES   REMARKS
MANITOWISH WTR CLOUDY     7 -12  42 S10       30.08F WCI  -8
ARBOR VITAE    CLOUDY     9  -9  44 S9        30.09F WCI  -4
WOODRUFF       CLOUDY     9  -9  44 S9        30.09F WCI  -4
RHINELANDER    CLOUDY    11 -13  33 S17G24    30.12S WCI  -6
EAGLE RIVER    CLOUDY    11 -15  29 S12G18    30.10F WCI  -3
LAND O LAKES   CLOUDY    12 -12  33 S12       30.10F WCI  -2
PHILLIPS       CLOUDY     9  -9  43 S10       30.09S WCI  -5
TOMAHAWK       CLOUDY    10  -9  42 SE6       30.14R WCI   0
MEDFORD        CLOUDY     9  -5  54 SE9       30.11F WCI  -5
MERRILL        CLOUDY    11  -7  45 S9        30.17S WCI  -2
$$

WIZ029-030-035-036-043>047-141800-
CENTRAL WISCONSIN

CITY           SKY/WX    TMP DP  RH WIND       PRES   REMARKS
WAUSAU         CLOUDY    14  -1  51 SE16      30.15F WCI  -2
MOSINEE        NOT AVBL
MARSHFIELD     CLOUDY    12  -5  46 SE16G23   30.11F WCI  -5
STEVENS POINT  CLOUDY    11  -4  49 S10G18    30.18F WCI  -2
WAUPACA        SUNNY     11  -4  52 CALM      30.23S
WAUTOMA        NOT AVBL
WISC RAPIDS    CLOUDY    14  -6  40 S13G18    30.17F WCI   0
CAMP DOUGLAS   NOT AVBL
$$

WIZ011>013-019>022-031-037>040-048>050-141800-
NORTHEAST WISCONSIN

CITY           SKY/WX    TMP DP  RH WIND       PRES   REMARKS
ANTIGO         CLOUDY     9  -2  59 S18       30.16S WCI  -9
SHAWANO        CLOUDY    10  -2  57 CALM      30.24F
OCONTO         CLOUDY     9  -3  57 NE3       30.26S
STURGEON BAY   CLOUDY    12   5  73 E5        30.27F WCI   4
GREEN BAY      CLOUDY    14   4  64 S6        30.25S WCI   5
MANITOWOC      LGT SNOW  19  10  68 CALM      30.26S
APPLETON       PTSUNNY   16   3  57 SE12      30.21S WCI   3
CLINTONVILLE   CLOUDY    12   0  57 S6        30.24R WCI   3
OSHKOSH        SUNNY     16   5  62 S13       30.22F WCI   2
$$

WIZ032>034-041-042-053>061-141800-
SOUTHWEST WISCONSIN

CITY           SKY/WX    TMP DP  RH WIND       PRES   REMARKS
LA CROSSE      LGT SNOW  14   7  73 SE10      30.12F WCI   1
SPARTA         LGT SNOW  15   8  75 SE7       30.15F WCI   5
VIROQUA        CLOUDY    12   8  82 SE14      30.08F WCI  -3
BOSCOBEL       LGT SNOW  16  11  80 E7        30.16S VSB 3/4 WCI   6
PRAIRIE DU CHI SNOW      16  11  82 E10       30.13F VSB 1/2 WCI   3
PLATTEVILLE    CLOUDY    15  12  89 SE15      30.12F VSB<1/4 WCI  -1
$$

WIZ056-057-062-063-064-067-068-141800-
SOUTH CENTRAL WISCONSIN

CITY           SKY/WX    TMP DP  RH WIND       PRES   REMARKS
REEDSBURG      LGT SNOW  13   5  69 SE7       30.16F WCI   3
BARABOO/DELLS  LGT SNOW  14   4  65 SE9       30.16F WCI   1
LONE ROCK      LGT SNOW  15   8  73 SE10      30.18S WCI   2
MINERAL POINT  LGT SNOW  18  12  79 SE16G23   30.11F WCI   3
MADISON        LGT SNOW  14   4  64 SE16      30.18F WCI  -2
MIDDLETON      CLOUDY    17   7  64 SE14      30.18F WCI   3
WATERTOWN      CLOUDY    17   3  55 SE13G20   30.21F WCI   3
MONROE         SNOW      14  10  85 SE17G24   30.16F VSB 1/2 WCI  -3
JANESVILLE     LGT SNOW  18   7  62 SE16      30.21S WCI   3
$$

WIZ051-052-058>065-066-070>072-141800-
SOUTHEAST WISCONSIN

CITY           SKY/WX    TMP DP  RH WIND       PRES   REMARKS
MILWAUKEE      CLOUDY    19  11  70 S18       30.25F WCI   4
WAUKESHA       CLOUDY    16   9  73 SE12G23   30.24F WCI   3
MILWAUKEE/TIMM FLURRIES  18   9  68 S17G25    30.26S WCI   2
RACINE         CLOUDY    19   8  62 SE20G26   30.26F WCI   3
BURLINGTON     CLOUDY    16   5  61 SE15G21   30.22F WCI   1
KENOSHA        CLOUDY    18   7  62 SE20      30.24F WCI   2
FOND DU LAC    CLOUDY    19   9  65 S22       30.22F WCI   2
SHEBOYGAN      LGT SNOW  15  10  80 S3        30.25R VSB 3/4
WEST BEND      LGT SNOW  19  12  73 CALM      30.23F
JUNEAU         CLOUDY    17   7  64 SE18G26   30.22F WCI   0
$$

LSZ147-162-141800-
LAKE SUPERIOR

STATION/POSITION TIME  TEMP    WIND        PRES    WAVE
                       AIR SEA DIR/SP/G            HT/PER
                 (UTC) (F)     (DEG/KT/KT) (MB)    (FT/S)
DEVILS ISLAND    1600   10     170/  9/ 15 1022.1F
SAXON HARBOR     1600                      1020.3S
$$

LMZ867-665-643>646-141800-
LAKE MICHIGAN

STATION/POSITION TIME  TEMP    WIND        PRES    WAVE
                       AIR SEA DIR/SP/G            HT/PER
                 (UTC) (F)     (DEG/KT/KT) (MB)    (FT/S)
CHAMBERS ISLAND  1600   20      10/  3/  4 1025.4F
SISTER BAY       1604   13     350/  5/  6   N/A
KEWAUNEE LAKESHO 1600   14      30/  3/  4 1023.7F
SHEBOYGAN LAKESH 1600   16     190/  3/  5 1025.9F
PORT WASHINGTON  1600   23     170/ 22     1025.1F
MILWAUKEE LAKESH 1610   20     160/ 23/ 29   N/A
KENOSHA   LAKESH 1600   18     160/ 24/ 29 1025.1R
$$

TC  - TEMPERATURE IN CELSIUS
VSB - VISIBILITY IN STATUTE MILES
WCI - WIND CHILL INDEX
HX  - HEAT INDEX




USA.gov is the U.S. government's official web portal to all federal, state and local government web resources and services.